EW3836 Weather Reports


Display with metric or nautical units.
time (UTC)temp
F
wind
direction
speed
MPH
gust
MPH
rain 1hr
in
rain 24hr
in
rain mn
in
humidity
%
barometer
mb
20260510111506 60 129 0.0 0.0 0.00 0.00 0.00 44 1011.9
20260510110005 60 144 0.0 0.0 0.00 0.00 0.00 44 1012.0
20260510104501 60 117 0.0 0.0 0.00 0.00 0.00 45 1012.0
20260510103104 60 144 0.0 0.0 0.00 0.00 0.00 45 1012.2
20260510101558 60 153 0.0 0.0 0.00 0.00 0.00 47 1012.3
20260510100057 59 113 0.0 0.0 0.00 0.00 0.00 47 1012.4
20260510094554 60 138 0.0 0.0 0.00 0.00 0.00 47 1012.6
20260510093103 60 121 0.0 0.0 0.00 0.00 0.00 47 1012.7
20260510091548 59 119 0.0 0.0 0.00 0.00 0.00 47 1012.8
20260510090050 59 132 0.0 0.0 0.00 0.00 0.00 47 1013.1
20260510084549 60 144 0.0 0.0 0.00 0.00 0.00 47 1013.2
20260510083048 59 129 0.0 0.0 0.00 0.00 0.00 47 1013.3
20260510081556 59 126 0.0 0.0 0.00 0.00 0.00 47 1013.4
20260510080036 60 130 0.0 0.0 0.00 0.00 0.00 46 1013.5
20260510074533 60 121 0.0 0.0 0.00 0.00 0.00 45 1013.5
20260510073037 59 119 0.0 0.0 0.00 0.00 0.00 45 1013.6
20260510071528 59 133 0.0 0.0 0.00 0.00 0.00 44 1013.7
20260510070025 59 116 0.0 0.0 0.00 0.00 0.00 41 1013.7
20260510064533 59 119 0.0 0.0 0.00 0.00 0.00 43 1013.6
20260510063033 60 119 0.0 0.0 0.00 0.00 0.00 42 1013.7
20260510061524 59 118 0.0 0.0 0.00 0.00 0.00 43 1013.9
20260510060034 58 125 0.0 0.0 0.00 0.00 0.00 47 1014.0
20260510054521 58 128 0.0 0.0 0.00 0.00 0.00 50 1014.2
20260510053025 58 128 0.0 0.0 0.00 0.00 0.00 52 1014.3
20260510051520 57 133 0.0 0.0 0.00 0.00 0.00 55 1014.5
20260510050011 57 134 0.0 0.0 0.00 0.00 0.00 57 1014.6
20260510044527 57 139 0.0 0.0 0.00 0.00 0.00 57 1014.7
20260510043010 57 135 0.0 0.0 0.00 0.00 0.00 56 1014.8
20260510041509 58 118 0.0 0.0 0.00 0.00 0.00 54 1015.0
20260510040008 59 86 0.0 0.0 0.00 0.00 0.00 51 1014.9
20260510034508 59 65 0.0 0.0 0.00 0.00 0.00 51 1014.8
20260510033007 58 44 0.0 0.0 0.00 0.00 0.00 51 1014.8
20260510031508 59 44 0.0 0.0 0.00 0.00 0.00 51 1014.8
20260510030008 60 44 0.0 0.0 0.00 0.00 0.00 49 1014.7
20260510024505 62 44 0.0 0.0 0.00 0.00 0.00 47 1014.7
20260510023004 64 44 0.0 0.0 0.00 0.00 0.00 43 1014.8
20260510021502 66 44 0.0 0.0 0.00 0.00 0.00 40 1015.0
20260510020002 67 44 0.0 0.0 0.00 0.00 0.00 39 1015.2
20260510014604 67 43 0.0 0.0 0.00 0.00 0.00 38 1015.2
20260510013058 68 24 0.0 0.0 0.00 0.00 0.00 38 1015.2
20260510011558 68 74 0.0 0.0 0.00 0.00 0.00 39 1015.4
20260510010056 68 42 0.0 0.0 0.00 0.00 0.00 39 1015.6
20260510004554 68 36 0.0 0.0 0.00 0.00 0.00 39 1015.6
20260510003101 68 65 0.0 0.0 0.00 0.00 0.00 43 1015.7
20260510001548 69 46 0.0 0.0 0.00 0.00 0.00 40 1015.7
20260510000052 69 37 0.0 0.0 0.00 0.00 0.00 42 1015.8
20260509234552 69 45 0.0 0.0 0.00 0.00 0.00 41 1016.0
20260509233038 69 169 0.0 0.0 0.00 0.00 0.00 41 1016.2
20260509231533 70 23 0.0 0.0 0.00 0.00 0.00 41 1016.4
20260509230031 70 299 0.0 0.0 0.00 0.00 0.00 42 1016.5
20260509224527 69 348 0.0 0.0 0.00 0.00 0.00 36 1016.6
20260509223025 67 19 0.0 0.0 0.00 0.00 0.00 38 1016.7
20260509221521 67 24 0.0 0.0 0.00 0.00 0.00 42 1016.7
20260509220019 65 316 0.0 0.0 0.00 0.00 0.00 42 1016.8
20260509214516 65 49 0.0 0.0 0.00 0.00 0.00 46 1017.0
20260509213015 65 347 0.0 0.0 0.00 0.00 0.00 42 1017.1
20260509211514 65 194 0.0 0.0 0.00 0.00 0.00 44 1017.3
20260509210018 66 45 0.0 0.0 0.00 0.00 0.00 46 1017.3
20260509204514 65 330 0.0 0.0 0.00 0.00 0.00 50 1017.4
20260509203017 66 260 0.0 0.0 0.00 0.00 0.00 45 1017.4
20260509201510 65 41 0.0 0.0 0.00 0.00 0.00 48 1017.5
20260509200007 64 134 0.0 0.0 0.00 0.00 0.00 50 1017.6
20260509194505 63 330 0.0 0.0 0.00 0.00 0.00 51 1017.8
20260509193002 61 261 0.0 0.0 0.00 0.00 0.00 45 1018.0
20260509191501 61 255 0.0 0.0 0.00 0.00 0.00 45 1018.2
20260509190105 60 257 0.0 0.0 1.09 0.00 0.00 50 1018.4
20260509184607 59 273 0.0 0.0 0.00 0.00 0.00 53 1018.5
20260509183056 59 250 0.0 0.0 0.00 0.00 0.00 55 1018.7
20260509181554 58 118 0.0 0.0 0.00 0.00 0.00 55 1018.9
20260509180052 59 134 0.0 0.0 0.00 0.00 0.00 53 1018.9
20260509174548 57 238 0.0 0.0 0.00 0.00 0.00 53 1018.9
20260509173055 57 80 0.0 0.0 0.00 0.00 0.00 59 1018.7
20260509171600 56 240 0.0 0.0 0.00 0.00 0.00 59 1018.9
20260509170041 56 240 0.0 0.0 0.00 0.00 0.00 61 1019.0
20260509164538 55 204 0.0 0.0 0.00 0.00 0.00 63 1019.0
20260509163137 54 254 0.0 0.0 0.00 0.00 0.00 63 1019.1
20260509161536 54 245 0.0 0.0 0.00 0.00 0.00 63 1019.2
20260509160033 53 267 0.0 0.0 0.00 0.00 0.00 66 1018.9
20260509154529 52 171 0.0 0.0 0.00 0.00 0.00 68 1018.8
20260509153023 52 179 0.0 0.0 0.00 0.00 0.00 68 1018.7
20260509151521 51 229 0.0 0.0 0.00 0.00 0.00 69 1018.7
20260509150018 51 201 0.0 0.0 0.00 0.00 0.00 71 1018.7
20260509144517 50 210 0.0 0.0 0.00 0.00 0.00 72 1018.5
20260509143012 49 193 0.0 0.0 0.00 0.00 0.00 73 1018.5
20260509141520 48 173 0.0 0.0 0.00 0.00 0.00 75 1018.5
20260509140009 47 178 0.0 0.0 0.00 0.00 0.00 78 1018.5
20260509134507 46 155 0.0 0.0 0.00 0.00 0.00 78 1018.6
20260509133006 45 182 0.0 0.0 0.00 0.00 0.00 79 1018.6
20260509131507 45 162 0.0 0.0 0.00 0.00 0.00 79 1018.5
20260509130003 44 159 0.0 0.0 0.00 0.00 0.00 80 1018.4
20260509124620 44 148 0.0 0.0 0.00 0.00 0.00 79 1018.4
20260509123102 45 160 0.0 0.0 0.00 0.00 0.00 79 1018.3
20260509121556 45 218 0.0 0.0 0.00 0.00 0.00 79 1018.2
20260509120106 45 207 0.0 0.0 0.00 0.00 0.00 79 1018.1
20260509114556 45 193 0.0 0.0 0.00 0.00 0.00 79 1018.2
20260509113052 45 198 0.0 0.0 0.00 0.00 0.00 80 1018.2